Tracking 19794 objects as of 21-Jul-2019
HD Live streaming from Space Station
objects crossing your sky now

NOAA 16 DEB

Track NOAA 16 DEB now!
10-day predictions


NORAD ID: 41262
Int'l Code: 2000-055FN
Perigee: 855.1 km
Apogee: 948.9 km
Inclination: 98.9 °
Period: 102.9 minutes
Semi major axis: 7272 km
RCS: Unknown
Launch date: September 21, 2000
Source: United States (US)
Launch site: AIR FORCE WESTERN TEST RANGE (AFWTR)

Note: This is SATELLITE DEBRIS
aabbcc
Your satellite tracking list
Your tracking list is empty




NASA's NSSDC Master Catalog

Two Line Element Set (TLE):
1 41262U 00055FN  19199.93005533  .00000456  00000-0  33515-3 0  9997
2 41262  98.8797 243.0408 0064509 212.2953 147.4255 13.99696285184351
Source of the keplerian elements: AFSPC